Temperature
12 12 12 12 12 12 12 12 12 11 11 11 11 11 11 11 11 11 11 11 11 11 10 10 10 10 10 10 10 10 10 10 10 10 9 9 9 9 9 10 10 10 10
12 12 12 12 12 11 11 11 11 11 11 11 11 11 11 10 11 11 11 11 10 10 10 10 10 10 10 10 10 10 10 9 9 9 9 9 9 9 9 9 9 9 9
12 12 12 11 11 11 11 11 11 11 11 10 10 10 10 10 10 10 10 10 10 10 10 10 10 10 10 10 10 10 9 9 9 9 9 9 9 9 9 9 9 9 9
11 11 11 11 11 11 11 11 11 10 10 10 10 10 10 10 10 10 10 10 10 10 10 10 10 10 10 9 9 9 9 9 9 9 9 8 8 9 9 9 9 9 8
11 11 11 11 10 10 10 10 10 10 10 10 10 10 9 9 9 10 10 10 10 10 10 10 10 9 9 9 9 9 9 9 9 9 8 8 8 8 8 8 8 8 8
10 10 10 10 10 10 10 10 10 10 10 9 9 9 9 9 9 9 9 9 9 9 9 9 9 9 9 9 9 9 8 8 8 8 8 8 8 8 8 8 8 8 8
10 10 10 10 10 10 10 10 9 9 9 9 9 8 8 8 8 9 9 9 9 9 9 9 9 9 9 9 8 8 8 8 8 8 8 8 8 8 8 8 8 8 7
10 9 9 10 9 9 9 9 9 9 9 9 9 8 8 8 8 8 8 8 9 9 8 8 8 9 9 8 8 8 8 8 8 8 7 7 7 7 7 7 7 7 7
9 9 9 9 9 9 9 9 9 9 9 8 8 8 8 8 8 8 8 8 8 8 8 8 8 8 8 8 8 8 8 8 8 7 7 7 7 7 7 6 6 6 6
8 8 8 8 8 8 8 8 8 8 8 8 8 8 8 8 8 7 8 8 8 8 8 8 8 8 8 8 8 8 8 8 7 7 7 7 6 6 6 6 6 6 6
8 8 8 8 8 8 8 8 8 8 8 8 8 8 8 8 8 8 7 7 8 8 8 8 8 8 8 8 8 7 7 7 7 7 7 6 6 6 6 6 6 5 5
7 7 7 7 7 7 7 8 8 7 8 8 8 8 8 8 8 8 7 7 7 7 7 7 7 7 7 7 7 7 7 7 7 7 6 6 6 6 6 5 5 5 5
6 7 7 7 7 7 7 7 7 7 7 7 7 7 7 7 7 7 7 7 7 7 7 7 7 7 7 7 7 7 7 7 7 6 6 6 6 6 6 5 5 5 5
6 6 6 6 6 6 6 7 7 7 7 7 7 7 7 7 7 7 7 7 6 6 6 7 7 7 7 7 6 6 6 6 6 6 6 6 6 5 5 5 5 5 5
5 5 6 6 6 6 6 6 6 6 6 6 6 6 6 6 6 6 6 6 6 6 6 6 6 6 6 6 6 6 6 6 6 6 5 5 5 5 5 5 4 4 4
4 5 5 5 5 5 5 5 5 5 5 6 6 6 6 6 6 6 6 6 6 6 6 6 6 6 6 6 5 5 6 6 5 5 5 5 5 5 4 4 4 4 4
4 4 4 4 4 5 4 4 4 5 5 5 5 5 5 5 5 5 5 5 5 5 5 5 5 5 5 5 5 5 5 5 5 5 5 5 4 4 4 4 4 4 3
3 3 3 4 4 4 4 4 4 4 4 4 4 4 4 4 5 5 5 5 5 5 5 5 5 5 5 5 5 5 5 4 4 4 4 4 4 4 4 3 3 3 3
2 3 3 3 3 3 3 3 3 3 4 4 4 4 4 4 4 4 4 4 4 4 4 4 4 4 4 4 4 4 4 4 4 4 4 4 4 3 3 3 3 3 3
2 2 2 2 2 2 3 3 3 3 3 3 3 3 3 3 3 3 3 4 4 4 4 3 3 4 4 4 3 3 3 3 3 3 3 3 3 3 3 2 2 2 2
1 1 1 1 1 2 2 2 2 2 2 2 2 2 2 2 2 3 3 3 3 3 3 3 3 3 3 3 3 3 3 3 3 3 3 3 3 2 2 2 2 2 2
-0 0 0 0 1 1 1 1 1 1 1 1 1 2 2 2 2 2 2 2 2 2 2 2 2 2 3 2 2 2 2 2 2 2 2 2 2 2 2 2 2 1 1
-1 -1 -0 -0 -0 0 0 0 0 0 0 1 1 1 1 1 1 1 1 1 1 1 2 2 2 2 2 2 2 2 2 1 1 1 1 2 2 2 2 1 1 1 1
-1 -1 -1 -1 -1 -0 -0 -0 -0 -0 -0 0 0 0 0 1 1 1 1 1 1 1 1 1 1 1 1 1 1 1 1 1 1 1 1 1 1 1 1 1 1 1 0
-2 -2 -2 -2 -1 -1 -1 -1 -1 -1 -1 -0 -0 -0 -0 -0 -0 -0 0 0 0 1 1 1 1 1 1 1 1 1 1 0 0 0 0 -0 0 0 0 0 0 -0 -0
-3 -3 -3 -2 -2 -2 -2 -2 -1 -2 -1 -1 -1 -1 -1 -1 -1 -1 -0 -0 -0 -0 -0 0 0 0 0 0 0 0 -0 -0 -0 -0 -0 -1 -0 -1 -1 -0 -0 -1 -1
Wind_Speed
5 6 6 6 6 8 8 7 7 8 8 8 8 8 8 8 8 9 8 9 8 8 8 9 9 10 10 10 10 10 10 10 10 10 10 10 10 10 11 11 11 10 10
7 6 5 5 6 7 8 8 7 7 6 7 6 7 7 7 8 8 8 8 7 7 7 7 8 8 9 9 9 9 9 9 9 9 9 8 9 9 9 9 9 9 9
8 7 5 4 6 8 8 8 7 7 5 5 5 6 7 7 8 8 8 7 7 6 6 6 7 7 7 7 8 8 8 8 7 7 7 7 7 7 7 8 8 9 9
9 7 5 4 6 7 7 5 4 4 4 4 3 3 5 6 6 7 7 7 6 6 5 5 6 7 7 7 7 7 7 6 6 6 6 6 6 6 6 7 7 8 8
9 7 5 4 6 6 5 4 3 4 5 4 4 3 3 4 4 6 6 5 6 6 5 6 7 7 6 6 5 6 5 5 5 4 4 4 4 4 4 5 6 6 7
7 7 5 5 6 4 3 4 4 4 4 5 5 3 2 2 3 4 4 4 5 6 6 5 6 5 5 5 4 4 4 4 3 3 2 2 2 3 3 3 4 5 5
7 6 4 4 5 3 3 4 4 5 3 4 4 3 2 2 2 1 2 3 3 4 5 5 5 4 4 3 3 3 3 3 3 3 2 1 0 1 1 2 3 3 4
5 5 4 4 4 3 4 4 4 3 2 2 3 3 1 1 2 1 0 1 2 3 4 4 4 4 3 3 3 3 3 3 3 3 3 2 2 1 1 1 1 2 3
4 4 4 4 4 4 4 4 4 4 3 1 2 3 3 3 1 1 1 1 1 2 2 4 5 5 4 3 3 4 4 4 4 4 3 3 3 2 1 1 1 1 2
3 3 4 4 3 3 3 3 2 2 4 3 1 1 1 3 3 1 1 1 1 2 2 3 4 5 5 4 4 4 5 5 5 5 5 5 4 4 3 2 2 2 2
2 3 3 3 3 2 2 3 2 2 2 3 3 2 2 1 1 2 2 2 1 2 2 3 4 5 5 5 5 5 5 5 5 6 6 6 6 5 4 4 3 3 3
1 2 2 2 2 2 2 2 2 2 2 2 2 2 3 3 3 3 2 2 2 2 2 2 3 5 6 6 6 6 7 6 6 6 6 7 6 6 5 5 4 4 4
1 0 1 1 1 2 2 2 2 2 2 2 2 2 2 3 3 3 3 2 2 2 1 2 4 5 6 6 7 7 7 7 7 7 7 7 6 6 6 6 5 6 5
1 0 1 1 1 2 2 2 1 2 2 2 2 2 1 2 2 3 3 3 1 1 2 3 2 4 6 7 8 7 7 9 9 8 8 7 7 7 7 6 7 7 7
1 1 1 0 1 1 2 2 2 2 2 2 2 2 2 2 2 2 3 3 4 3 4 3 2 2 5 6 7 6 7 9 9 10 10 9 8 8 8 8 7 7 7
2 1 1 1 1 1 1 2 2 2 2 2 2 2 2 1 1 2 3 3 3 3 3 3 3 2 3 4 6 6 8 8 9 10 9 9 9 8 8 8 8 8 7
1 1 1 1 1 1 2 2 2 2 3 2 2 3 3 2 2 2 2 2 2 3 4 3 2 1 2 3 3 5 6 7 7 8 9 9 9 9 9 9 9 9 8
1 1 1 1 1 1 1 2 3 3 3 3 3 3 3 2 3 2 2 3 3 3 3 4 3 2 2 3 3 3 4 6 7 8 9 9 10 10 10 10 10 9 9
1 1 1 1 2 2 2 2 2 3 3 3 3 4 4 3 4 3 3 3 3 3 2 3 3 2 2 2 2 2 2 3 5 7 8 9 10 10 10 10 10 10 10
1 1 1 2 2 2 3 2 2 2 3 3 3 3 4 4 5 4 4 4 3 3 3 3 3 3 2 2 2 2 2 2 3 4 6 8 8 9 10 10 10 10 10
2 1 1 2 2 3 3 3 3 3 3 2 2 2 3 4 5 4 4 3 4 3 3 3 3 3 3 2 3 2 3 3 3 2 3 4 5 5 7 9 10 10 9
2 2 2 2 3 3 4 5 4 3 3 3 3 3 3 3 4 5 5 5 5 4 4 4 4 5 5 4 3 3 2 2 3 2 2 4 3 3 6 7 9 9 8
2 2 3 2 3 4 5 5 5 3 3 3 3 3 3 3 4 3 4 5 5 6 6 5 5 6 5 5 4 4 4 4 5 3 1 4 3 4 6 8 9 8 8
2 3 3 3 3 4 5 5 4 2 2 3 3 4 4 3 3 3 3 3 3 4 5 5 5 5 5 5 5 4 4 3 3 2 2 3 3 4 5 7 8 9 9
3 3 3 3 3 4 4 4 3 2 2 3 3 3 3 3 5 5 4 4 3 4 4 5 6 6 6 6 5 2 2 2 4 3 2 2 3 3 3 4 6 7 8
3 3 3 3 3 3 4 4 3 2 2 2 2 2 4 5 5 5 4 4 4 4 3 2 3 3 4 4 5 4 4 4 3 3 2 2 2 1 3 3 3 4 5
Wind_Direction
135 136 137 138 137 136 133 128 122 119 118 116 118 117 110 109 108 105 104 107 109 113 118 120 117 112 109 105 101 95 90 88 83 80 77 73 71 67 66 64 62 60 57
141 141 141 141 143 145 142 135 130 125 121 119 116 119 116 116 118 115 110 110 110 111 113 121 121 116 113 109 103 101 94 89 84 81 79 75 72 70 67 64 59 56 53
140 139 138 142 148 146 139 130 123 120 116 115 109 114 116 119 124 120 117 114 113 113 117 119 121 122 118 113 111 107 101 94 90 85 79 75 72 68 64 59 57 54 52
140 135 131 137 143 139 136 128 124 122 120 117 113 106 110 116 125 126 123 119 118 118 121 126 125 125 124 121 118 112 107 101 96 91 80 73 72 68 61 60 57 52 50
139 136 134 134 136 126 128 132 123 124 125 122 116 98 93 105 121 126 121 125 128 128 127 129 127 125 129 128 129 124 118 114 108 103 90 79 71 68 59 59 56 51 48
133 130 129 131 131 119 115 121 123 114 122 126 114 89 69 78 104 116 129 133 136 134 135 133 135 137 139 138 136 137 135 138 130 124 111 93 75 56 54 54 54 49 45
130 127 125 130 131 132 136 131 126 123 120 122 108 86 39 39 52 94 123 130 144 149 145 145 147 146 156 159 158 160 167 171 170 171 179 177 79 14 27 37 43 41 35
124 133 132 134 131 129 132 129 127 127 137 139 131 126 121 9 349 349 92 145 153 153 156 164 164 170 173 182 197 205 203 209 210 206 205 222 245 295 331 355 9 24 19
115 128 137 136 135 139 154 157 147 144 159 168 143 148 157 194 225 319 302 205 179 165 184 183 182 188 196 203 217 221 221 226 227 227 219 222 244 254 262 300 309 334 344
114 119 131 134 137 137 152 167 156 147 157 170 168 157 152 148 159 178 307 278 228 211 210 204 194 198 204 210 222 229 232 231 234 237 237 239 246 242 251 268 281 295 321
102 110 127 129 133 140 143 147 152 155 166 175 175 165 135 115 135 157 202 251 267 241 220 214 208 213 216 218 224 227 230 229 237 245 244 243 242 244 248 256 272 282 298
77 92 110 130 142 139 149 151 150 165 182 178 182 177 168 165 175 165 185 212 233 249 233 221 220 221 223 224 226 229 231 233 236 246 251 247 246 252 255 255 264 270 280
18 202 145 154 159 168 169 151 142 165 179 181 188 203 198 195 170 162 163 184 215 260 264 244 232 226 227 228 229 230 234 236 238 246 256 257 253 257 262 263 265 267 273
267 248 168 157 165 174 172 158 154 177 167 192 202 198 210 217 185 175 173 169 187 253 262 252 246 226 227 226 231 231 237 239 240 243 252 260 259 256 261 267 270 272 276
345 22 54 139 165 176 173 160 185 195 181 199 210 203 215 227 197 190 176 178 178 212 243 239 234 232 224 225 232 230 235 241 241 242 246 252 253 253 257 262 267 270 273
6 8 19 1 190 178 174 171 191 195 194 211 203 201 217 232 217 195 189 194 193 197 232 240 231 235 217 233 238 233 237 242 242 242 243 247 251 252 254 255 257 260 263
359 327 330 314 265 212 189 188 206 202 204 215 215 210 223 219 217 214 205 195 197 191 229 263 262 250 214 227 247 237 237 240 245 244 246 248 251 255 254 253 254 255 258
320 300 276 261 264 247 213 202 211 215 210 216 222 219 231 226 222 222 216 214 212 202 208 246 264 249 238 233 239 238 245 245 247 248 248 250 253 255 255 255 254 253 256
314 323 282 250 253 256 238 222 212 219 220 223 224 224 231 219 228 227 222 221 219 214 204 223 248 251 250 240 248 267 263 262 258 252 249 252 253 254 256 257 254 253 256
261 275 288 277 265 260 252 231 217 224 226 227 225 227 229 224 227 221 223 221 215 211 205 210 235 245 246 238 218 245 275 272 269 259 260 258 255 256 259 258 254 253 256
283 276 284 283 276 267 253 231 223 227 226 236 240 239 240 242 242 231 231 222 209 213 212 219 231 238 237 229 229 226 253 277 277 257 279 275 265 265 266 263 259 254 255
297 289 274 269 269 269 267 252 237 228 229 230 241 250 258 260 258 249 245 236 222 220 223 228 237 237 240 234 227 226 235 263 271 259 240 271 263 259 269 265 260 256 255
293 288 279 271 271 270 270 257 247 230 234 235 235 243 257 256 260 256 255 253 249 244 234 231 235 237 237 228 217 228 232 240 251 243 240 264 261 262 271 263 262 258 259
277 280 283 280 282 280 277 263 252 231 238 240 238 234 236 244 243 241 235 245 254 257 247 240 238 240 237 226 220 227 230 244 275 270 213 251 266 268 284 270 260 260 263
282 280 278 278 278 283 277 259 257 226 236 248 247 237 230 239 249 245 235 235 255 271 267 251 248 253 247 236 220 198 216 234 263 258 217 228 259 282 279 270 267 263 264
282 289 291 285 273 274 274 262 259 222 231 248 257 250 246 244 247 244 232 226 244 260 268 276 270 268 259 241 230 217 213 231 255 256 224 210 243 272 286 275 277 273 270
Height
1548 1550 1552 1554 1556 1557 1559 1560 1562 1563 1565 1566 1567 1568 1569 1569 1570 1571 1571 1572 1573 1573 1574 1574 1574 1575 1575 1575 1574 1574 1574 1574 1573 1573 1573 1572 1572 1571 1570 1570 1569 1568 1568
1547 1549 1551 1552 1554 1556 1558 1560 1561 1562 1564 1565 1566 1567 1568 1569 1569 1570 1571 1572 1573 1573 1574 1574 1574 1575 1575 1575 1575 1574 1574 1574 1574 1573 1573 1573 1572 1571 1571 1570 1570 1569 1568
1546 1547 1549 1551 1553 1555 1557 1558 1560 1561 1563 1564 1565 1566 1567 1568 1569 1570 1571 1571 1572 1573 1573 1574 1574 1574 1575 1575 1575 1575 1574 1574 1574 1573 1573 1573 1572 1572 1571 1571 1570 1569 1568
1544 1546 1548 1549 1551 1553 1555 1556 1558 1559 1561 1562 1563 1565 1566 1567 1568 1568 1570 1570 1571 1572 1573 1573 1574 1574 1574 1574 1574 1574 1574 1574 1574 1573 1573 1573 1572 1572 1571 1571 1570 1569 1568
1543 1544 1546 1548 1550 1551 1553 1554 1556 1557 1559 1560 1562 1563 1564 1566 1567 1567 1568 1569 1570 1571 1572 1572 1573 1573 1574 1574 1574 1574 1574 1574 1573 1573 1573 1572 1572 1572 1571 1570 1570 1569 1568
1541 1542 1544 1546 1548 1549 1551 1552 1554 1556 1557 1559 1560 1562 1563 1564 1565 1566 1567 1568 1569 1569 1570 1571 1572 1572 1573 1573 1573 1573 1573 1573 1573 1572 1572 1572 1572 1571 1570 1570 1569 1569 1568
1539 1540 1542 1544 1545 1547 1549 1550 1552 1553 1555 1557 1559 1560 1562 1563 1564 1564 1565 1566 1567 1568 1569 1569 1570 1571 1571 1572 1572 1572 1572 1572 1572 1571 1571 1571 1571 1570 1570 1569 1569 1568 1567
1536 1538 1540 1542 1543 1545 1547 1548 1550 1551 1553 1555 1556 1558 1559 1562 1561 1562 1563 1564 1565 1566 1567 1568 1568 1569 1569 1570 1570 1570 1570 1570 1570 1570 1570 1570 1569 1569 1568 1568 1567 1567 1566
1534 1536 1538 1540 1541 1543 1544 1546 1548 1549 1550 1552 1554 1555 1556 1557 1559 1560 1560 1561 1563 1564 1564 1565 1566 1567 1567 1568 1568 1568 1568 1568 1568 1568 1568 1568 1568 1567 1567 1566 1566 1565 1565
1532 1534 1536 1537 1539 1541 1542 1544 1545 1547 1549 1550 1552 1553 1554 1555 1556 1556 1558 1559 1560 1561 1562 1563 1564 1565 1565 1565 1566 1566 1566 1566 1566 1566 1566 1566 1566 1566 1565 1564 1564 1564 1563
1530 1531 1533 1535 1536 1538 1539 1541 1543 1544 1546 1547 1549 1550 1552 1553 1554 1554 1555 1556 1557 1558 1559 1560 1561 1562 1562 1563 1563 1563 1564 1564 1564 1564 1564 1564 1564 1563 1563 1562 1562 1561 1561
1527 1528 1530 1532 1533 1535 1536 1538 1540 1541 1543 1545 1546 1548 1549 1550 1551 1552 1552 1553 1554 1555 1556 1557 1558 1559 1559 1560 1560 1560 1561 1561 1561 1561 1561 1561 1561 1560 1560 1560 1559 1559 1558
1524 1525 1527 1529 1530 1531 1533 1535 1537 1538 1540 1541 1543 1544 1546 1547 1548 1550 1550 1551 1551 1552 1553 1554 1554 1555 1556 1556 1557 1557 1557 1557 1557 1558 1558 1558 1557 1557 1557 1557 1556 1556 1555
1522 1523 1524 1526 1527 1529 1530 1532 1533 1535 1536 1538 1539 1541 1542 1544 1545 1546 1548 1548 1548 1549 1549 1550 1551 1552 1552 1553 1553 1554 1554 1554 1554 1554 1554 1554 1554 1553 1553 1553 1553 1552 1552
1520 1521 1522 1523 1524 1526 1527 1528 1530 1531 1532 1534 1536 1537 1539 1540 1542 1543 1544 1545 1547 1545 1545 1546 1547 1548 1549 1549 1550 1550 1550 1550 1550 1550 1550 1550 1550 1550 1549 1549 1549 1548 1548
1517 1518 1518 1520 1521 1522 1524 1525 1526 1527 1529 1530 1532 1533 1535 1536 1538 1539 1540 1541 1542 1543 1542 1542 1543 1544 1545 1546 1546 1546 1546 1546 1546 1546 1546 1546 1546 1546 1545 1545 1545 1544 1544
1514 1515 1516 1517 1518 1519 1520 1521 1522 1524 1525 1526 1527 1529 1530 1532 1533 1535 1536 1537 1538 1539 1538 1538 1539 1540 1541 1541 1542 1542 1542 1542 1541 1542 1542 1542 1542 1541 1541 1541 1540 1540 1539
1511 1512 1513 1514 1515 1515 1516 1517 1518 1520 1521 1522 1523 1525 1526 1528 1529 1530 1532 1533 1534 1534 1535 1534 1534 1535 1536 1537 1537 1537 1537 1537 1537 1537 1537 1537 1537 1537 1536 1536 1536 1535 1535
1508 1509 1509 1510 1511 1511 1512 1513 1514 1515 1516 1518 1519 1520 1522 1523 1524 1526 1527 1528 1529 1530 1530 1530 1530 1531 1531 1532 1532 1532 1533 1533 1533 1533 1532 1532 1532 1532 1531 1531 1531 1530 1530
1504 1505 1505 1506 1507 1507 1508 1509 1510 1511 1512 1513 1515 1516 1517 1519 1520 1521 1522 1523 1524 1525 1525 1525 1525 1526 1526 1527 1527 1527 1527 1528 1528 1528 1528 1527 1527 1527 1526 1526 1526 1525 1525
1501 1501 1502 1502 1503 1504 1504 1505 1506 1506 1507 1508 1510 1511 1512 1514 1515 1516 1517 1518 1519 1519 1520 1520 1520 1521 1521 1521 1522 1522 1522 1523 1523 1523 1523 1523 1522 1522 1521 1521 1520 1520 1519
1497 1497 1498 1499 1499 1500 1500 1501 1502 1502 1503 1504 1505 1506 1507 1509 1510 1511 1512 1513 1514 1515 1515 1515 1515 1516 1516 1516 1517 1517 1517 1517 1517 1518 1518 1517 1517 1516 1516 1515 1515 1514 1514
1493 1493 1494 1494 1495 1495 1496 1497 1498 1498 1499 1500 1501 1501 1502 1504 1505 1505 1506 1508 1508 1509 1510 1511 1510 1511 1511 1512 1512 1512 1512 1512 1512 1513 1513 1511 1512 1511 1511 1510 1510 1509 1509
1489 1489 1489 1490 1490 1491 1492 1493 1493 1494 1495 1496 1496 1497 1498 1498 1500 1500 1501 1502 1503 1503 1504 1505 1505 1506 1507 1507 1507 1508 1507 1508 1508 1508 1508 1506 1505 1505 1505 1505 1505 1504 1503
1485 1485 1485 1485 1486 1486 1488 1488 1489 1489 1490 1491 1491 1492 1493 1494 1494 1495 1496 1497 1497 1498 1499 1499 1500 1501 1501 1502 1502 1502 1502 1502 1501 1501 1502 1501 1500 1500 1499 1499 1499 1499 1498
1481 1481 1481 1481 1482 1482 1483 1484 1484 1485 1485 1485 1486 1487 1488 1489 1490 1490 1491 1492 1492 1492 1493 1494 1494 1495 1496 1496 1497 1497 1497 1497 1496 1496 1496 1497 1495 1495 1494 1493 1494 1493 1493